Location: Palo Alto
(37.4420°N, 122.1420°W)
Time: 13:24:46
(UTC-07:00)

X-37B - Pass Details

Date: 17 August 2020
Orbit: 386 x 387 km, 45.0° (Epoch: 18 September)

Event Time Altitude Azimuth Distance (km) Brightness Sun altitude
Rises 20:44:14 0° 301° (WNW) 2,265 6.7 -9.5°
Reaches altitude 10° 20:46:29 10° 313° (NW) 1,410 4.8 -9.9°
Maximum altitude 20:49:17 28° 15° (NNE) 762 2.2 -10.4°
Enters shadow 20:51:52 11° 75° (ENE) 1,334 2.8 -10.9°
